Waarnemingen

Advertentie
Mijn weer
Elsenborn, België (6496): temperatuur & dauwpunt: 10.01.2021 18:00:00 - 16.01.2021 18:00:00 (CET)Elsenborn, België (6496): windsnelheid & windstoten: 10.01.2021 18:00:00 - 16.01.2021 18:00:00 (CET)Elsenborn, België (6496): windrichting: 10.01.2021 18:00:00 - 16.01.2021 18:00:00 (CET)Elsenborn, België (6496): luchtdruk: 10.01.2021 18:00:00 - 16.01.2021 18:00:00 (CET)Elsenborn, België (6496): zicht: 10.01.2021 18:00:00 - 16.01.2021 18:00:00 (CET)
Datum & Tijd tt [°C] td [°C] ff [km/u] ff [kn] fx [km/u] fx [kn] dd ppp [hPa] vv [km]
16.01.2021 18:00:00 -4,0 -5,3 11 6 22 12 ZZW 1021,1 4,1
16.01.2021 17:00:00 -4,0 -6,3 11 6 29 16 ZZW 1022,3 14
16.01.2021 16:00:00 -3,8 -6,9 14 8 - - ZZW 1023,5 20
16.01.2021 15:00:00 -3,5 -7,0 11 6 25 14 Z 1024,0 19
16.01.2021 14:00:00 -3,3 -6,8 11 6 25 14 ZZW 1025,0 10
16.01.2021 13:00:00 -3,0 -6,0 11 6 - - ZZW 1026,0 15
16.01.2021 12:00:00 -3,0 -5,5 11 6 22 12 Z 1027,2 10
16.01.2021 11:00:00 -2,9 -6,0 4 2 7 4 N 1027,9 15
16.01.2021 10:00:00 -3,5 -5,4 5 3 - - ZZW 1028,0 10
16.01.2021 09:00:00 -4,2 -5,1 4 2 7 4 N 1029,0 5
16.01.2021 08:00:00 -4,2 -5,1 4 2 7 4 N 1029,2 6
16.01.2021 07:00:00 -4,5 -5,2 4 2 - - N 1029,5 4,2
16.01.2021 06:00:00 -4,3 -5,1 4 2 4 2 N 1030,0 5
16.01.2021 05:00:00 -4,3 -4,9 4 2 4 2 N 1030,5 3,9
16.01.2021 04:00:00 -4,2 -4,8 4 2 - - N 1030,4 4,4
16.01.2021 03:00:00 -4,2 -4,9 4 2 4 2 N 1030,9 4,5
16.01.2021 02:00:00 -4,1 -4,8 4 2 4 2 N 1030,9 4,8
16.01.2021 01:00:00 -4,0 -5,0 4 2 - - N 1031,0 6
16.01.2021 00:00:00 -3,7 -4,9 4 2 11 6 N 1031,4 6
15.01.2021 23:00:00 -3,7 -5,1 4 2 14 8 N 1031,2 7
15.01.2021 22:00:00 -3,5 -5,1 11 6 - - N 1031,2 10
15.01.2021 21:00:00 -3,4 -4,8 7 4 14 8 NNW 1030,9 6
15.01.2021 20:00:00 -3,3 -4,5 4 2 11 6 N 1030,7 8
15.01.2021 19:00:00 -3,1 -4,4 4 2 - - N 1030,5 8
15.01.2021 18:00:00 -3,1 -4,4 7 4 18 10 NNO 1030,0 8
15.01.2021 17:00:00 -2,9 -4,1 7 4 14 8 NNO 1029,9 5
15.01.2021 16:00:00 -2,7 -4,5 7 4 - - NO 1029,5 4,6
15.01.2021 15:00:00 -2,8 -4,3 11 6 25 14 NNO 1028,9 10
15.01.2021 14:00:00 -3,0 -4,7 14 8 25 14 NNO 1028,7 11
15.01.2021 13:00:00 -2,8 -4,1 11 6 - - NNO 1028,5 5
15.01.2021 12:00:00 -3,1 -4,6 11 6 22 12 NO 1028,4 8
15.01.2021 11:00:00 -3,3 -4,8 11 6 22 12 NO 1028,0 4,7
15.01.2021 10:00:00 -4,0 -5,0 9 5 - - NNO - 2,6
15.01.2021 09:00:00 -4,4 -5,3 7 4 14 8 NNO 1026,4 8
15.01.2021 08:00:00 -4,8 -5,8 11 6 14 8 NNO 1025,7 13
15.01.2021 07:00:00 -5,6 -6,5 11 6 - - NO 1025,2 13
15.01.2021 06:00:00 -6,4 -7,5 14 8 14 8 NO 1024,7 17
15.01.2021 05:00:00 -5,8 -7,3 11 6 22 12 NO 1024,0 20
15.01.2021 04:00:00 -4,6 -6,7 11 6 - - ONO 1022,7 20
15.01.2021 03:00:00 -4,7 -6,2 11 6 29 16 O 1022,1 20
15.01.2021 02:00:00 -4,3 -5,6 14 8 25 14 ONO 1021,2 18
15.01.2021 01:00:00 -3,8 -5,2 14 8 - - O 1020,6 18
15.01.2021 00:00:00 -3,2 -4,7 14 8 29 16 O 1020,0 19
14.01.2021 23:00:00 -2,8 -4,2 14 8 29 16 O 1019,3 18
14.01.2021 22:00:00 -2,8 -4,4 14 8 - - O 1019,1 18
14.01.2021 21:00:00 -2,7 -4,2 11 6 29 16 OZO 1018,5 18
14.01.2021 20:00:00 -2,4 -3,7 14 8 25 14 OZO 1018,1 16
14.01.2021 19:00:00 -2,4 -3,6 14 8 - - OZO 1018,2 18
14.01.2021 18:00:00 -2,5 -3,8 14 8 22 12 ZO 1018,3 19
14.01.2021 17:00:00 -2,1 -3,5 11 6 22 12 ZO 1018,3 19
14.01.2021 16:00:00 -1,7 -3,1 11 6 - - ZZO 1018,2 18
14.01.2021 15:00:00 -1,6 -3,4 7 4 18 10 ZZO 1018,6 19
14.01.2021 14:00:00 -1,4 -3,3 7 4 14 8 ZZO 1019,1 20
14.01.2021 13:00:00 -1,8 -3,4 7 4 - - ZO 1020,0 19
14.01.2021 12:00:00 -1,9 -2,9 4 2 7 4 N 1020,2 17
14.01.2021 11:00:00 -2,0 -2,8 4 2 7 4 N 1020,7 11
14.01.2021 10:00:00 -2,3 -3,0 4 2 - - N 1020,2 15
14.01.2021 09:00:00 -2,4 -3,1 4 2 7 4 N 1019,7 18
14.01.2021 08:00:00 -2,4 -2,7 4 2 7 4 N 1019,7 17
14.01.2021 07:00:00 -2,5 -2,8 4 2 - - N 1019,5 18
14.01.2021 06:00:00 -2,1 -2,3 7 4 22 12 ONO 1018,8 1,4
14.01.2021 05:00:00 -0,7 -0,7 15 8 18 10 NNO 1018,5 0,7
14.01.2021 04:00:00 -0,1 -0,1 11 6 - - N 1017,8 1,0
14.01.2021 03:00:00 0,2 0,0 15 8 36 19 NNW 1017,3 2,1
14.01.2021 02:00:00 0,5 0,0 18 10 32 18 NW 1017,2 4,9
14.01.2021 01:00:00 0,3 -0,1 18 10 - - NW 1017,2 6
14.01.2021 00:00:00 0,2 -0,6 14 8 29 16 NW 1017,1 8
13.01.2021 23:00:00 0,1 -0,9 18 10 29 16 NW 1016,6 9
13.01.2021 22:00:00 0,1 -1,2 14 8 - - NW 1016,5 13
13.01.2021 21:00:00 0,0 -1,1 14 8 25 14 NW 1016,2 14
13.01.2021 20:00:00 0,0 -1,2 11 6 29 16 WNW 1015,8 14
13.01.2021 19:00:00 0,6 -0,5 18 10 - - NW 1015,6 19
13.01.2021 18:00:00 0,6 0,5 11 6 25 14 WNW 1015,6 3,1
13.01.2021 17:00:00 0,8 -0,3 14 8 25 14 W 1015,8 15
13.01.2021 16:00:00 0,2 -1,6 15 8 - - WZW 1016,3 10
13.01.2021 15:00:00 0,1 -2,9 18 10 32 18 W 1016,8 20
13.01.2021 14:00:00 0,5 -2,6 14 8 32 18 WZW 1017,1 19
13.01.2021 13:00:00 0,0 -2,2 14 8 - - WZW 1018,2 20
13.01.2021 12:00:00 -0,2 -1,7 14 8 29 16 W 1019,0 20
13.01.2021 11:00:00 -0,4 -1,4 18 10 32 18 W 1019,3 17
13.01.2021 10:00:00 -0,4 -1,2 18 10 - - W 1019,5 13
13.01.2021 09:00:00 -0,5 -0,9 14 8 29 16 W 1019,3 13
13.01.2021 08:00:00 -0,5 -1,2 14 8 29 16 W 1019,2 16
13.01.2021 07:00:00 -0,5 -0,8 14 8 - - W 1019,2 8
13.01.2021 06:00:00 -0,7 -0,7 11 6 25 14 WNW 1019,2 3,0
13.01.2021 05:00:00 -0,8 -0,9 11 6 25 14 W 1019,6 3,3
13.01.2021 04:00:00 -0,8 -1,0 11 6 - - W 1019,6 5
13.01.2021 03:00:00 -0,7 -1,2 7 4 22 12 WNW 1019,2 12
13.01.2021 02:00:00 -0,6 -1,1 11 6 18 10 WNW 1019,2 13
13.01.2021 01:00:00 -0,6 -1,0 11 6 - - W 1018,8 12
13.01.2021 00:00:00 -0,4 -1,2 11 6 18 10 NW 1018,6 14
12.01.2021 23:00:00 -0,4 -1,0 11 6 22 12 NW 1018,0 9
12.01.2021 22:00:00 -0,4 -1,0 14 8 - - NNW 1017,2 14
12.01.2021 21:00:00 -0,3 -1,6 11 6 25 14 NW 1016,3 20
12.01.2021 20:00:00 0,0 -2,0 14 8 25 14 NW 1015,6 20
12.01.2021 19:00:00 0,0 -0,9 11 6 - - WNW 1014,7 15
12.01.2021 18:00:00 0,4 -0,6 11 6 40 21 NNW 1013,8 20
12.01.2021 17:00:00 0,8 0,0 18 10 32 18 NNW 1012,7 20
12.01.2021 16:00:00 1,2 0,6 22 12 - - NNW 1011,3 20
12.01.2021 15:00:00 2,0 1,2 18 10 40 21 NW 1010,1 20
12.01.2021 14:00:00 2,9 2,3 18 10 36 19 NW 1008,8 4,6
12.01.2021 13:00:00 3,1 2,8 11 6 - - NW 1008,6 3,4
12.01.2021 12:00:00 3,3 3,1 14 8 25 14 W 1008,2 4,1
12.01.2021 11:00:00 2,8 2,7 18 10 40 21 WZW 1008,0 7
12.01.2021 10:00:00 2,3 2,2 18 10 - - WZW 1008,1 6
12.01.2021 09:00:00 1,8 1,6 18 10 36 19 WZW 1008,2 6
12.01.2021 08:00:00 1,3 1,1 18 10 32 18 WZW 1009,0 9
12.01.2021 07:00:00 1,2 0,9 22 12 - - WZW 1009,2 6
12.01.2021 06:00:00 1,1 0,9 22 12 32 18 WZW 1010,0 8
12.01.2021 05:00:00 0,6 0,6 22 12 36 19 WZW 1010,8 3,8
12.01.2021 04:00:00 0,3 0,3 22 12 - - ZW 1011,8 2,8
12.01.2021 03:00:00 0,3 0,3 18 10 40 21 ZW 1013,0 2,4
12.01.2021 02:00:00 0,6 0,6 24 13 40 21 ZW 1014,0 1,8
12.01.2021 01:00:00 0,5 0,4 18 10 - - ZW 1014,7 0,9
12.01.2021 00:00:00 0,4 0,3 22 12 36 19 ZW 1015,7 0,7
11.01.2021 23:00:00 0,2 0,1 18 10 29 16 ZW 1016,2 2,5
11.01.2021 22:00:00 0,2 0,1 14 8 - - WZW 1016,8 3,3
11.01.2021 21:00:00 -0,2 -0,3 18 10 32 18 ZW 1017,5 3,3
11.01.2021 20:00:00 -0,2 -0,4 22 12 32 18 ZW 1017,7 5
11.01.2021 19:00:00 -0,5 -0,7 13 7 - - ZW 1018,6 6
11.01.2021 18:00:00 -0,9 -1,0 11 6 25 14 ZW 1019,1 5
11.01.2021 17:00:00 -1,1 -1,1 14 8 25 14 ZW 1019,7 4,3
11.01.2021 16:00:00 -1,0 -1,1 11 6 - - ZW 1019,8 2,6
11.01.2021 15:00:00 -1,4 -1,6 11 6 22 12 ZW 1020,5 2,8
11.01.2021 14:00:00 -2,2 -2,4 11 6 18 10 WZW 1021,1 2,9
11.01.2021 13:00:00 -3,2 -3,5 11 6 - - ZW 1022,2 4,2
11.01.2021 12:00:00 -3,5 -3,7 14 8 22 12 ZW 1023,2 2,2
11.01.2021 11:00:00 -4,2 -4,6 11 6 18 10 ZW 1024,2 1,5
11.01.2021 10:00:00 -4,7 -5,4 11 6 - - ZW 1024,4 7
11.01.2021 09:00:00 -5,0 -6,2 14 8 22 12 ZW 1024,2 16
11.01.2021 08:00:00 -6,4 -7,5 4 2 11 6 N 1024,5 11
11.01.2021 07:00:00 -8,4 -9,2 4 2 - - N 1025,7 9
11.01.2021 06:00:00 -6,5 -7,4 7 4 18 10 N 1024,9 13
11.01.2021 05:00:00 -5,7 -6,8 7 4 14 8 ZZW 1025,0 16
11.01.2021 04:00:00 -9,4 -10,3 4 2 - - N 1026,4 13
11.01.2021 03:00:00 -10,1 -11,2 7 4 7 4 W 1026,9 12
11.01.2021 02:00:00 -11,1 -12,4 4 2 7 4 N 1027,4 11
11.01.2021 01:00:00 -12,0 -13,2 4 2 - - N 1028,0 9
11.01.2021 00:00:00 -11,6 -12,7 4 2 0 0 N 1027,9 12
10.01.2021 23:00:00 -10,7 -11,6 4 2 4 2 N 1027,9 10
10.01.2021 22:00:00 -10,5 -11,6 2 1 - - - 1027,9 9
10.01.2021 21:00:00 -8,4 -8,9 0 0 4 2 N 1027,4 1,2
10.01.2021 20:00:00 -8,3 -9,1 4 2 0 0 N 1027,5 11
10.01.2021 19:00:00 -6,9 -7,4 0 0 - - N 1027,0 20
10.01.2021 18:00:00 -5,3 -5,6 4 2 4 2 N 1026,5 0,2

tt = temperatuur
td = dauwpunt
ff = windsnelheid
fx = windstoten
dd = windrichting
ppp = luchtdruk
vv = zicht

Weerstations in de omgeving